Vorticity
nan nan nan nan nan nan nan nan nan nan nan nan nan nan nan nan nan nan nan nan nan nan nan nan nan nan nan nan nan nan nan nan nan nan nan nan nan nan nan nan nan nan nan
nan 9 7 7 9 11 8 7 6 7 8 10 6 7 6 9 9 5 4 7 8 13 10 11 11 10 6 5 6 8 8 8 7 6 6 6 6 7 7 7 7 7 nan
nan 8 7 7 8 10 16 15 12 10 8 9 10 9 10 10 11 9 6 5 10 16 11 9 11 12 10 7 6 6 6 7 8 7 7 6 6 6 7 7 6 6 nan
nan 8 7 8 8 8 10 12 12 12 13 12 12 9 10 11 8 8 7 5 7 10 18 13 8 10 12 10 7 6 5 6 7 7 8 8 7 7 6 6 5 5 nan
nan 7 8 7 7 8 8 7 8 8 8 8 8 13 12 8 9 12 10 9 5 3 9 18 16 9 14 12 9 8 6 6 5 7 6 7 6 6 6 6 5 4 nan
nan 6 7 6 7 7 6 6 8 9 9 8 10 14 11 10 9 11 9 8 9 7 6 11 13 18 17 12 11 8 8 7 7 5 7 7 6 6 6 6 8 9 nan
nan 4 5 6 7 5 5 6 7 7 9 10 10 10 15 13 11 8 9 11 8 8 8 8 7 11 18 18 12 10 7 8 8 8 8 7 7 7 7 7 7 10 nan
nan 3 4 6 6 6 6 5 6 7 7 7 10 10 11 12 13 10 12 11 8 9 8 10 10 6 6 14 18 15 10 8 9 9 8 8 8 7 7 7 7 8 nan
nan 5 5 6 6 6 4 5 6 6 6 7 8 9 8 4 8 13 14 14 14 9 8 9 9 13 8 10 13 13 13 12 13 10 8 9 8 8 8 8 8 8 nan
nan 7 7 8 7 6 6 6 5 5 7 6 8 10 5 4 4 6 6 8 16 15 13 6 9 13 11 10 10 13 15 10 13 13 9 8 7 8 8 7 8 8 nan
nan 9 9 9 8 7 6 7 7 6 6 6 6 6 10 11 7 5 4 6 5 8 14 14 9 9 14 11 12 13 16 9 9 13 12 8 9 9 7 7 7 8 nan
nan 8 8 8 9 8 8 7 8 8 7 6 5 7 9 8 10 10 9 6 4 7 8 13 14 10 9 13 13 13 14 11 8 10 13 13 9 8 8 8 7 8 nan
nan 6 7 8 7 7 9 8 10 10 8 9 6 7 8 8 8 9 9 9 8 7 8 6 14 13 11 11 10 13 12 14 11 8 10 15 13 11 10 8 9 8 nan
nan 7 7 8 7 8 9 9 11 10 9 10 11 8 7 9 9 8 8 8 10 8 6 7 7 11 13 14 12 10 11 15 14 12 9 11 16 14 12 12 10 9 nan
nan 7 8 8 9 9 9 9 10 9 9 10 13 10 8 9 7 8 9 9 9 9 9 10 7 11 10 13 13 13 15 11 14 13 11 8 11 15 14 12 12 13 nan
nan 8 8 9 9 9 9 10 8 10 9 8 9 10 7 6 9 8 9 8 8 8 8 9 7 6 7 7 12 15 14 12 15 12 12 12 9 12 16 14 13 15 nan
nan 9 9 9 9 9 10 10 8 9 9 8 8 11 10 8 4 6 8 7 8 8 9 5 7 5 6 9 8 10 10 15 13 15 14 11 13 14 16 15 15 15 nan
nan 9 9 9 9 9 10 10 10 9 10 10 10 9 10 11 8 7 6 8 8 8 9 9 9 9 10 9 11 11 8 12 17 17 13 16 17 15 13 12 11 11 nan
nan 10 10 9 10 10 10 10 10 10 10 11 11 13 12 8 11 10 8 8 9 9 9 11 10 9 10 11 11 9 11 10 15 21 18 17 16 15 10 8 7 8 nan
nan 10 9 10 10 11 12 11 11 11 12 12 12 11 10 10 8 10 14 9 8 10 10 9 10 10 10 8 6 9 8 9 10 17 21 20 13 8 9 11 9 7 nan
nan 9 10 10 10 13 9 9 9 12 12 12 13 11 12 9 8 6 6 10 11 11 10 10 10 10 9 7 6 8 10 7 8 9 14 17 15 10 12 9 8 12 nan
nan 10 10 10 11 10 7 9 9 13 10 11 12 12 12 15 16 12 5 4 4 7 8 10 10 10 8 7 7 7 8 7 7 9 11 7 16 17 8 15 18 8 nan
nan 11 11 11 11 9 9 8 11 13 12 11 10 10 11 14 13 15 18 15 11 7 4 5 9 11 10 10 7 8 7 9 11 13 7 5 11 12 14 21 20 10 nan
nan 11 11 10 12 10 8 10 14 14 13 12 11 10 10 9 10 8 13 14 15 18 14 5 5 5 9 18 13 9 7 6 11 9 8 12 8 9 13 19 18 12 nan
nan 12 10 10 11 9 8 11 16 17 14 15 14 13 9 10 11 9 8 10 11 12 19 20 11 1 -2 5 24 19 12 4 6 9 7 12 11 8 10 11 16 15 nan
nan nan nan nan nan nan nan nan nan nan nan nan nan nan nan nan nan nan nan nan nan nan nan nan nan nan nan nan nan nan nan nan nan nan nan nan nan nan nan nan nan nan nan
CAPE
135 21 0 0 0 4 19 2 0 90 135 143 81 15 36 7 3 0 0 0 5 0 73 282 399 394 136 134 47 21 10 13 13 16 12 9 19 19 22 22 19 19 18
103 214 3 1 83 120 165 54 148 36 116 85 158 169 181 126 21 12 13 0 0 0 0 92 338 369 292 110 45 37 33 21 13 13 14 22 24 23 24 24 21 21 24
8 4 0 0 0 9 65 191 144 177 303 217 163 125 91 116 92 21 20 6 0 0 0 0 204 357 624 286 71 36 43 43 33 23 22 22 33 28 26 33 31 28 30
0 0 0 0 0 0 0 0 0 0 42 81 93 69 65 77 93 69 17 6 0 0 0 0 3 235 285 435 159 18 17 64 47 41 40 34 34 37 32 41 44 39 41
0 0 0 0 0 0 0 0 0 0 0 2 5 161 76 13 148 29 8 4 2 0 0 0 0 0 168 354 439 110 11 23 75 50 47 37 39 41 43 39 61 60 56
0 0 0 0 0 0 0 0 0 0 0 5 0 0 177 305 304 120 66 9 7 2 0 0 0 0 23 262 346 438 126 17 29 43 60 61 44 45 45 40 57 67 64
0 0 0 0 0 0 0 0 0 0 0 0 0 0 0 159 283 135 36 149 13 3 1 0 0 0 49 123 264 386 279 62 24 71 87 66 60 47 53 55 60 58 57
0 0 0 0 0 0 0 0 0 0 0 0 0 0 4 47 162 107 115 141 117 7 2 0 0 0 0 237 343 250 345 408 197 101 82 49 52 47 66 71 71 63 68
0 0 0 0 0 0 0 0 0 0 0 0 0 0 0 8 3 3 105 155 181 26 21 1 0 0 0 4 223 203 77 83 230 165 59 43 55 53 64 68 67 57 76
0 0 0 0 7 10 8 5 0 0 0 0 0 0 7 0 0 0 0 0 56 44 61 26 1 0 4 12 28 95 21 0 60 108 81 36 51 68 70 66 55 57 87
0 0 0 16 48 55 39 44 40 14 6 4 0 0 0 0 0 2 0 0 0 1 6 73 21 0 1 62 84 150 2 0 0 52 71 55 52 45 47 59 54 59 76
0 0 0 0 0 18 35 48 57 62 58 38 23 13 3 0 0 0 11 1 0 0 0 11 12 2 0 36 65 24 0 0 0 0 38 48 51 77 63 53 62 56 76
0 0 0 0 0 0 0 1 8 23 43 34 26 26 15 6 4 0 0 0 0 0 0 7 37 13 2 0 0 1 0 0 0 0 0 10 37 34 54 104 72 43 68
0 0 0 0 0 0 0 0 0 0 14 82 39 55 39 13 7 4 0 0 0 0 0 0 7 33 4 5 0 0 5 0 0 0 0 0 1 17 7 35 28 9 34
0 0 0 0 0 0 0 0 0 5 40 107 142 100 116 120 57 21 13 7 6 0 0 0 2 0 19 21 0 1 0 0 0 0 0 0 0 0 0 6 1 8 32
0 0 0 0 0 0 0 0 1 6 12 89 94 71 89 91 79 50 26 26 25 17 2 0 0 25 2 0 0 0 0 0 0 0 0 0 0 0 0 0 0 1 2
0 0 0 0 0 0 0 3 3 3 6 8 28 106 113 101 135 110 70 41 37 32 30 3 0 5 0 2 2 6 5 1 0 0 0 0 0 0 0 0 0 0 0
0 0 0 0 0 0 0 0 1 2 6 6 8 16 24 58 125 143 141 46 37 45 29 27 9 3 7 0 11 0 2 1 1 0 0 0 0 0 0 0 0 0 0
0 0 0 0 0 0 0 0 1 7 12 16 18 26 28 27 77 95 82 84 58 27 57 67 19 9 5 28 15 3 0 0 0 0 0 0 0 0 0 0 0 0 0
0 0 0 0 0 0 0 1 4 11 20 25 37 47 37 33 56 49 68 67 49 71 78 68 27 18 3 18 20 4 2 1 0 0 0 0 0 0 0 0 0 0 0
0 0 0 0 0 0 1 5 8 12 17 14 30 30 39 31 28 36 47 57 76 94 89 94 71 89 40 18 20 7 0 1 2 0 1 0 0 0 0 0 0 0 0
0 0 0 0 0 0 0 4 9 22 16 24 35 41 44 47 42 23 3 1 5 24 52 100 67 94 46 24 26 12 1 1 2 1 0 0 0 0 0 0 0 0 0
0 0 0 2 5 9 6 6 6 26 33 31 37 43 32 32 32 38 28 4 3 0 0 8 42 84 45 80 33 15 1 0 0 1 0 0 0 0 0 0 0 1 2
0 0 2 7 10 10 7 7 6 26 33 31 35 40 44 48 42 34 51 67 62 55 46 14 5 7 67 78 100 45 0 0 1 0 0 0 1 1 1 0 6 6 6
0 4 6 10 13 13 7 6 14 35 32 27 25 35 29 35 26 27 52 63 50 63 34 9 7 0 0 0 6 124 0 0 1 1 1 0 2 1 3 3 0 8 8
2 11 11 14 10 29 4 5 11 30 28 32 21 32 8 20 9 8 49 58 76 40 62 34 7 11 3 0 0 3 2 1 0 2 1 0 0 0 0 1 1 1 9